Weather History for Northway, AK

Change the Weather History Date:

Tuesday, November 19, 2013

  Actual Average Record
Temperature  
Mean Temperature -19 °F -  
Max Temperature -11 °F 0 °F 25 °F (1967)
Min Temperature -27 °F -15 °F -47 °F (1982)
Degree Days  
Heating Degree Days 84    
Moisture  
Dew Point -27 °F    
Average Humidity 76    
Maximum Humidity 79    
Minimum Humidity 73    
Precipitation  
Precipitation 0.00 in - - ()
Snow  
Snow 0.00 in - - ()
Snow Depth 7.00 in    
Sea Level Pressure  
Sea Level Pressure 30.30 in    
Wind  
Wind Speed 1 mph (East)    
Max Wind Speed 5 mph    
Max Gust Speed -    
Visibility 9 miles    
Events Snow    
Averages and records for this station are not official NWS values.
T = Trace of Precipitation, MM = Missing Value Source: NWS Daily Summary

Daily Weather History Graph

Daily Weather History Graph

Search for Another Location

Airport:

Trip Planner

Search our weather history database for the weather conditions in past years. The results will help you decide how hot, cold, wet, or windy it might be!

Date:

Astronomy

Nov. 19, 2013 Rise Set
Actual Time 8:59 AM AKST 3:26 PM AKST
Civil Twilight 8:01 AM AKST 4:24 PM AKST
Nautical Twilight 7:02 AM AKST 5:23 PM AKST
Astronomical Twilight 6:07 AM AKST 6:17 PM AKST
Moon 5:17 PM AKST (11/19) 10:53 AM AKST (11/19)
Length of Visible Light 8h 23m
Length of Day
6h 26m
Waning Gibbous, 95% of the Moon is Illuminated
Nov 19
Waning Gibbous
Nov 25
Last Quarter
Dec 2
New
Dec 9
First Quarter
Dec 17
Full

Hourly Weather History & Observations

Time (AKST) Temp. Windchill Dew Point Humidity Pressure Visibility Wind Dir Wind Speed Gust Speed Precip Events Conditions
12:53 AM -11.0 °F -20.4 °F -17.0 °F 75% 30.31 in 9.0 mi ESE 3.5 mph - N/A Snow Light Snow
1:53 AM -11.9 °F -23.8 °F -18.0 °F 74% 30.31 in 6.0 mi East 4.6 mph - N/A Snow Light Snow
3:53 AM -11.9 °F - -17.0 °F 78% 30.30 in 8.0 mi Calm Calm - N/A Snow Light Snow
4:53 AM -14.1 °F - -18.9 °F 79% 30.30 in 5.0 mi Calm Calm - N/A Snow Light Snow
5:53 AM -15.0 °F - -20.0 °F 78% 30.30 in 6.0 mi Calm Calm - N/A Snow Light Snow
6:53 AM -18.0 °F - -24.0 °F 74% 30.30 in 5.0 mi Calm Calm - N/A Snow Light Snow
7:53 AM -20.9 °F - -27.0 °F 73% 30.32 in 10.0 mi Calm Calm - N/A   Scattered Clouds
8:53 AM -27.0 °F - -32.1 °F 77% 30.33 in 10.0 mi Calm Calm - N/A   Partly Cloudy
9:53 AM -27.0 °F - -33.0 °F 73% 30.34 in 10.0 mi Calm Calm - N/A   Scattered Clouds
10:53 AM -25.1 °F - -31.0 °F 74% 30.33 in 10.0 mi Calm Calm - N/A   Scattered Clouds
11:53 AM -18.9 °F - -24.0 °F 78% 30.32 in 10.0 mi Calm Calm - N/A   Scattered Clouds
12:53 PM -16.1 °F - -20.9 °F 79% 30.30 in 10.0 mi Calm Calm - N/A   Scattered Clouds
1:53 PM -15.0 °F - -20.9 °F 75% 30.29 in 10.0 mi Calm Calm - N/A   Scattered Clouds
2:53 PM -16.1 °F - -20.9 °F 79% 30.28 in 10.0 mi Calm Calm - N/A   Scattered Clouds
3:53 PM -23.1 °F - -27.9 °F 78% 30.30 in 10.0 mi Calm Calm - N/A   Scattered Clouds
4:53 PM -27.9 °F - -34.1 °F 73% 30.30 in 10.0 mi Calm Calm - N/A   Partly Cloudy
5:53 PM -27.9 °F - -34.1 °F 73% 30.30 in 10.0 mi Calm Calm - N/A   Scattered Clouds
6:50 PM -27.4 °F - -32.8 °F 75% 30.01 in 10.0 mi Calm Calm - N/A   Mostly Cloudy
6:53 PM -27.9 °F - -33.0 °F 77% 30.30 in 10.0 mi Calm Calm - N/A   Mostly Cloudy
7:53 PM -27.0 °F - -32.1 °F 77% 30.31 in 10.0 mi Calm Calm - N/A   Mostly Cloudy
8:53 PM -26.0 °F - -31.0 °F 77% 30.33 in 10.0 mi Calm Calm - N/A   Mostly Cloudy
9:53 PM -26.0 °F - -32.1 °F 73% 30.33 in 10.0 mi Calm Calm - N/A   Mostly Cloudy
10:53 PM -26.0 °F - -31.0 °F 77% 30.33 in 10.0 mi Calm Calm - N/A   Mostly Cloudy
11:53 PM -25.1 °F - -31.0 °F 74% 30.32 in 10.0 mi Calm Calm - N/A   Mostly Cloudy